Location: Desert Center
(33.7130°N, 115.4010°W)
Time: 04:03:19
(UTC-07:00)

Daily predictions for brighter satellites

Satellite Brightness Start Highest point End
(mag) Time Altitude Azimuth Time Altitude Azimuth Time Altitude Azimuth
Cosmos 2333 Rocket 3.8 00:12:34 10° NW 00:15:37 29° WNW 00:15:37 29° WNW
SL-16 R/B 3.5 00:18:42 10° N 00:22:35 35° NNE 00:22:35 35° NNE
Mayak 1.4 00:30:16 10° N 00:31:30 18° NNW 00:31:30 18° NNW
Cosmos 2297 Rocket 3.7 00:38:31 31° NW 00:38:31 31° NW 00:42:37 10° N
Cosmos 2227 Rocket 3.8 00:41:33 27° NW 00:41:33 27° NW 00:45:42 10° N
CZ-4C R/B 4.2 00:41:54 10° NW 00:46:24 28° W 00:46:24 28° W
Cosmos 2237 Rocket 4.0 00:46:47 10° NW 00:49:16 24° NW 00:49:16 24° NW
ADEOS Rocket 4.5 01:19:57 10° NNW 01:23:19 23° NW 01:23:19 23° NW
NOSS 3-1 (C) 4.0 01:27:45 49° NNE 01:27:45 49° NNE 01:32:13 10° NNE
Cosmos 1745 Rocket 4.4 01:26:11 10° N 01:31:39 61° NE 01:31:39 61° NE
CZ-2D R/B 4.3 01:30:09 10° ENE 01:32:32 15° E 01:32:32 15° E
S3M 4.4 01:44:57 54° NNW 01:44:57 54° NNW 01:49:56 10° N
BREEZE M DEB (TANK) 4.4 01:45:12 59° SE 01:45:12 59° SE 01:49:56 10° ENE
USA 229 4.5 01:44:58 39° WNW 01:45:19 39° NW 01:51:42 10° NNE
NOSS 3-1 (A) 3.8 01:47:39 56° NNE 01:47:39 56° NNE 01:52:31 10° NNE
Resurs 1-4 Rocket 3.7 01:50:38 10° NE 01:54:35 27° E 01:54:35 27° E
USA 267 3.6 01:55:52 10° NE 02:01:37 50° ESE 02:01:37 50° ESE
Cosmos 2263 Rocket 2.6 02:04:28 59° N 02:04:28 59° N 02:09:05 10° NNE
DELTA 2 R/B (1) 4.4 02:05:38 42° NNW 02:06:38 46° N 02:12:02 10° ENE
Cosmos 1943 3.6 02:01:58 10° NNW 02:07:25 57° ENE 02:07:25 57° ENE
SL-16 R/B 4.5 02:03:37 10° NW 02:04:27 13° WNW 02:04:27 13° WNW
Cosmos 1709 Rocket 4.1 02:03:12 10° N 02:09:33 67° E 02:09:45 66° E
Cosmos 2285 Rocket 4.0 02:13:14 82° NE 02:13:14 82° NE 02:19:22 10° NNE
OAO 2 Rocket 4.5 02:27:46 36° E 02:27:46 36° E 02:30:41 10° E
Cosmos 1269 Rocket 4.2 02:30:29 68° NE 02:30:29 68° NE 02:35:12 10° NNE
Cosmos 2221 3.7 02:36:05 10° N 02:38:48 37° NNW 02:38:48 37° NNW
NOSS 2-3 (D) 4.1 02:41:31 61° NE 02:41:31 61° NE 02:45:42 10° NNE
Cosmos 1452 Rocket 4.3 02:36:57 10° NNW 02:40:37 42° NW 02:40:37 42° NW
Cosmos 1626 3.9 02:52:29 27° NNW 02:52:29 27° NNW 02:54:22 10° N
SL-24 R/B - RUBIN 2 4.5 02:56:34 47° WNW 02:56:34 47° WNW 03:01:19 10° NNE
NOAA 9 4.5 02:52:06 10° NNE 02:57:33 89° ESE 02:58:05 74° S
Geosat 3.8 02:53:01 10° NNE 02:58:04 82° ESE 02:58:17 79° SSE
Meteor 2-19 Rocket 4.3 02:52:16 10° N 02:58:21 77° W 02:59:14 64° SSW
SL-16 R/B 2.4 02:59:48 57° S 03:01:06 77° WSW 03:07:20 10° NNW
NOSS 2-3 (E) 4.0 03:01:40 59° NW 03:01:40 59° NW 03:06:28 10° NNE
PSLV R/B 4.2 03:03:35 64° E 03:03:38 64° ENE 03:07:47 10° N
Cosmos 1766 Rocket 3.6 03:04:53 71° N 03:04:53 71° N 03:08:47 10° N
Centaur D-1AR AC-39 4.1 03:11:38 11° SE 03:11:38 11° SE 03:11:44 10° SE
OAO 1 4.4 03:08:22 70° WSW 03:09:00 83° SSE 03:14:33 10° E
ATLAS 2AS CENTAUR R/B 3.7 03:05:41 28° SSE 03:09:19 45° ESE 03:16:52 10° NE
IRS-1C 4.2 03:04:46 10° N 03:09:59 57° WNW 03:10:25 55° W
Spot 4 Rocket 3.9 03:07:38 10° NNE 03:12:47 84° WNW 03:13:34 65° SSW
CZ-2D R/B 2.3 03:08:31 10° N 03:13:31 49° WNW 03:13:51 49° W
Cosmos 921 Rocket 2.9 03:11:00 10° NNW 03:15:20 84° ENE 03:15:35 78° SE
SeaSat 1 2.4 03:14:42 37° SSE 03:16:41 86° ENE 03:21:39 10° NNW
Cosmos 1703 4.0 03:27:17 40° NW 03:27:17 40° NW 03:30:28 10° N
Cosmos 1844 Rocket 2.7 03:27:19 48° SW 03:28:51 72° WNW 03:34:32 10° NNE
IRS-1D 4.1 03:25:16 10° N 03:30:16 42° WNW 03:31:10 39° W
H-2A R/B 4.1 03:27:44 10° NNW 03:31:02 23° WNW 03:31:02 23° WNW
Cosmos 1408 Rocket 3.8 03:32:05 47° W 03:32:05 47° W 03:36:16 10° N
Cosmos 1809 Rocket 4.3 03:28:32 10° N 03:34:38 89° W 03:38:45 22° S
Resurs 1-4 Rocket 3.1 03:30:16 10° N 03:34:51 30° WNW 03:35:40 29° W
Cosmos 1110 Rocket 3.8 03:30:58 10° NNW 03:36:10 83° WSW 03:39:26 23° SSE
ARIANE 5 R/B 2.8 03:31:21 10° N 03:36:13 49° WNW 03:37:17 42° WSW
Cosmos 2278 Rocket 3.3 03:33:13 18° SSE 03:36:54 38° ESE 03:42:06 10° NE
Centaur D-1A AC-35 4.4 03:33:25 32° SW 03:37:08 48° S 04:31:42 10° ESE
Centaur D-1A AC-35 4.4 03:33:25 32° SW 03:37:09 48° S 04:31:42 10° ESE
Cosmos 1844 3.6 03:39:31 40° SW 03:41:35 74° WNW 03:47:16 10° NNE
UNKNOWN OBJECT B 2.6 03:38:09 10° N 03:41:54 75° WNW 03:42:24 62° SW
Cosmos 1151 Rocket 3.4 03:37:47 10° N 03:42:07 62° E 03:45:15 18° SSE
Cosmos 2058 3.1 03:43:47 47° WSW 03:44:15 50° W 03:48:21 10° N
Helios 1A Rocket 2.9 03:40:41 10° N 03:44:43 66° WNW 03:45:33 51° SW
USA 267 4.1 03:39:01 10° NNE 03:45:02 40° NW 03:48:58 20° W
Nadezhda 1 Rocket 4.3 03:49:40 32° SW 03:52:11 48° W 03:58:13 10° N
CZ-2D R/B 3.8 03:48:34 10° N 03:52:55 56° WNW 03:54:21 38° SW
DELTA 2 R/B (1) 3.6 03:47:52 10° WNW 03:53:29 82° NNE 03:59:07 10° ESE
BREEZE-M DEB (TANK) 3.6 03:49:45 26° SW 03:54:19 75° SE 03:57:23 10° NE
Cosmos 1455 2.9 03:51:17 10° NNW 03:54:26 33° W 03:54:26 33° W
Cosmos 2074 Rocket 4.5 03:49:18 10° NNW 03:55:00 39° W 03:57:30 28° SW
ADEOS II 2.0 03:51:22 10° NNE 03:56:39 88° ESE 04:00:09 22° SSW
Cosmos 1869 3.8 03:52:55 10° N 03:56:49 59° E 04:00:41 10° SSE
Cosmos 2154 Rocket 4.0 03:55:39 10° NNW 04:01:54 69° W 04:08:00 11° S
H-2A DEB 4.2 04:01:36 33° S 04:01:59 34° SSE 04:06:46 10° E
Cosmos 1743 Rocket 3.9 04:01:12 34° SW 04:02:31 45° W 04:06:41 10° N
Cosmos 1607 4.1 03:58:13 10° NW 04:04:22 52° WSW 04:10:22 10° S
COSMOS 2406 3.4 04:04:46 10° NNW 04:10:34 80° ENE 04:16:19 10° SSE
OAO 2 Rocket 3.4 04:06:43 17° W 04:10:35 76° N 04:15:31 10° E
Cosmos 2151 4.1 04:11:38 25° WSW 04:12:46 28° WNW 04:16:31 10° NNW
Cosmos 1805 Rocket 4.0 04:12:50 10° S 04:17:05 61° E 04:21:22 10° NNE
BREEZE-M DEB (TANK) 3.2 04:09:20 10° NW 04:17:32 59° SW 04:20:28 10° SSE
Cosmos 1295 Rocket 4.4 04:13:00 10° N 04:19:05 78° W 04:25:12 10° S
ASTRO E2 3.4 04:18:28 25° SW 04:20:16 39° SSE 04:24:01 10° E
Cosmos 1302 Rocket 4.0 04:17:06 10° NNW 04:22:20 64° WSW 04:27:33 10° S
Cosmos 1932 4.4 04:16:59 10° NW 04:23:08 66° WSW 04:29:13 10° SSE
SL-24 DEB 4.4 04:21:23 11° S 04:25:57 56° W 04:30:39 10° NNW
CCE 1 Rocket 4.0 04:24:58 21° WSW 04:27:10 41° S 04:31:44 10° ESE
Cosmos 2218 Rocket 4.4 04:22:24 10° N 04:28:32 67° E 04:34:37 10° SSE
Lacrosse 5 3.4 04:30:44 10° S 04:35:09 30° ESE 04:39:34 10° ENE
Cosmos 1707 Rocket 4.4 04:37:26 10° N 04:41:50 55° E 04:46:11 10° SSE
Cosmos 405 Rocket 3.4 04:40:12 10° NNW 04:43:37 32° W 04:46:58 10° SSW
APEX 4.4 04:42:14 10° N 04:44:45 33° ENE 04:47:26 10° SE
CZ-4B R/B 2.6 04:41:31 10° NNE 04:45:07 86° E 04:48:47 10° SSW
Hubble Space Telescope 3.1 04:45:34 10° S 04:47:12 12° SSE 04:48:49 10° SE
Cosmos 2228 Rocket 4.5 04:44:08 10° NW 04:47:37 22° W 04:51:03 10° SW
Intelsat 5-3 Rocket 4.2 04:49:18 11° WSW 04:55:15 25° S 04:58:29 10° SE
GENESIS II 4.2 04:54:20 10° SW 04:58:11 68° WNW 05:02:04 10° NNE
Cosmos 1190 Rocket 4.3 04:53:15 10° S 04:58:31 71° ESE 05:03:47 10° NNE
ATLAS 2AS CENTAUR R/B 3.8 04:53:13 10° WSW 05:00:25 39° NW 05:07:55 10° NNE
Cosmos 1666 Rocket 3.7 04:59:07 10° SSW 05:03:32 63° W 05:07:57 10° N
Cosmos 1633 Rocket 3.0 05:00:12 10° S 05:04:32 77° W 05:08:54 10° N
SL-08 R/B 4.5 04:58:49 10° N 05:05:01 78° W 05:11:07 10° S
Meteor PRIRODA 3.8 05:06:40 10° NNE 05:10:25 83° ESE 05:14:07 10° S
Cosmos 2098 Rocket 4.5 05:04:51 10° NNW 05:11:02 51° W 05:18:05 10° SSW
